Miscellaneous Local Product
Issued by NWS Hastings, NE

Home | Current Version | Previous Version | Text Only | Print | Product List | Glossary On
Versions: 1 2 3 4 5 6 7 8 9 10 11 12 13 14 15 16 17 18 19 20 21 22 23 24 25 26 27 28 29 30 31 32 33 34 35 36 37 38 39 40 41 42 43 44 45 46 47 48 49 50
000
AXUS43 KGID 231902
MISGRI

GID CWA HOURLY WEATHER ROUNDUP
NATIONAL WEATHER SERVICE HASTINGS NE
200 PM CDT SUN JUL 23 2017

NOTE: "FAIR" INDICATES FEW OR NO CLOUDS BELOW 12,000 FEET WITH NO
SIGNIFICANT WEATHER AND/OR OBSTRUCTIONS TO VISIBILITY.

...SOUTH CENTRAL NEBRASKA...

CITY           SKY/WX    TMP DP  RH WIND       PRES   REMARKS
GRAND ISLAND   SUNNY     87  65  47 N12       30.02F
HASTINGS       SUNNY     85  66  53 N9        30.03F
KEARNEY        SUNNY     87  67  51 N12       30.04F HX  90
ORD            SUNNY     88  53  30 N7        30.03F
YORK           SUNNY     84  68  58 N5        30.00S
AURORA         SUNNY     84  71  64 N9        30.01S
LEXINGTON      SUNNY     88  64  45 E7        30.04F
HOLDREGE       SUNNY     86  60  41 N3        30.04F
HEBRON         SUNNY     90  70  51 N9        29.97F HX  95

...NEBRASKA PANHANDLE...

CITY           SKY/WX    TMP DP  RH WIND       PRES   REMARKS
CHADRON        SUNNY     91  52  26 SE8       30.06F
ALLIANCE       SUNNY     92  49  22 S9        30.10F
SCOTTSBLUFF    SUNNY     91  55  29 E10       30.09F
SIDNEY         SUNNY     93  45  19 S14G21    30.15F

...WESTERN AND NORTH CENTRAL NEBRASKA...

CITY           SKY/WX    TMP DP  RH WIND       PRES   REMARKS
VALENTINE      SUNNY     91  42  18 E12       30.07F
AINSWORTH      SUNNY     85  54  34 NE7       30.08F
ONEILL         SUNNY     82  59  45 N8        30.06S
BROKEN BOW     SUNNY     88  58  36 E9        30.05F
IMPERIAL       SUNNY     94  45  18 E7        30.08F HX  90
NORTH PLATTE   SUNNY     93  40  15 SW6       30.06F
MCCOOK         SUNNY     91  57  31 VRB5      30.05F

...EASTERN NEBRASKA...

CITY           SKY/WX    TMP DP  RH WIND       PRES   REMARKS
NORFOLK        SUNNY     86  55  34 N9G16     30.01F
SO SIOUX CITY  SUNNY     85  60  42 N13       29.97F
TEKAMAH        SUNNY     86  60  41 N14       29.97S
COLUMBUS       SUNNY     87  63  44 N8        30.00F
ALBION         SUNNY     87  59  38 NE9       30.02F
OMAHA EPPLEY   MOSUNNY   90  63  40 N10       29.94F HX  91
OFFUTT AFB     SUNNY     90  66  45 N7        29.94F HX  92
MILLARD        SUNNY     89  64  41 NW8       29.96S HX  90
LINCOLN        SUNNY     89  69  51 NE8       29.96F HX  93
NEBRASKA CITY  MOSUNNY   86  76  73 N7        29.95S HX  96
BEATRICE       SUNNY     91  73  55 N12       29.96F HX 100
FALLS CITY     MOSUNNY   89  76  65 N8        29.92F HX 100

...NORTHERN KANSAS...

CITY           SKY/WX    TMP DP  RH WIND       PRES   REMARKS
GOODLAND       SUNNY     89  53  29 E13       30.12S
HILL CITY      SUNNY     92  64  39 E7        30.03F HX  93
NORTON         CLEAR     93  54  26 NE9       30.04  HX  91
PHILLIPSBURG   SUNNY     93  63  36 NE8       30.01F HX  94
SMITH CENTER   MOSUNNY   90  64  43 N7        30.00F HX  91
HAYS           SUNNY     91  65  41 N9G16     30.00F HX  93
RUSSELL        SUNNY     94  66  39 N9        29.98F HX  97
CONCORDIA      SUNNY     91  65  41 N5        29.97F HX  93
SALINA         SUNNY     95  65  37 N7        29.96F HX  97
TOPEKA         SUNNY     91  74  57 VRB5      29.93F HX 100



USA.gov is the U.S. government's official web portal to all federal, state and local government web resources and services.